| time (UTC) | temp F | wind direction | speed knots | gust knots | rain 1hr in | rain 24hr in | rain mn in | humidity % | barometer mb |
| 20260506114239 | 53 | 217 | 2.6 | 2.6 | 0.00 | 0.00 | 0.00 | 91 | 1018.3 |
| 20260506113738 | 53 | 207 | 5.2 | 6.1 | 0.00 | 0.00 | 0.00 | 91 | 1018.2 |
| 20260506113235 | 53 | 191 | 4.3 | 5.2 | 0.00 | 0.00 | 0.00 | 91 | 1018.2 |
| 20260506112731 | 53 | 198 | 5.2 | 6.1 | 0.00 | 0.00 | 0.00 | 91 | 1018.1 |
| 20260506112229 | 53 | 203 | 3.5 | 4.3 | 0.00 | 0.00 | 0.00 | 91 | 1018.2 |
| 20260506111726 | 53 | 197 | 1.7 | 2.6 | 0.00 | 0.00 | 0.00 | 91 | 1018.0 |
| 20260506111224 | 53 | 205 | 4.3 | 6.1 | 0.00 | 0.00 | 0.00 | 91 | 1018.1 |
| 20260506110721 | 53 | 194 | 4.3 | 7.0 | 0.00 | 0.00 | 0.00 | 91 | 1017.9 |
| 20260506110218 | 53 | 226 | 0.0 | 0.9 | 0.00 | 0.00 | 0.00 | 92 | 1018.0 |
| 20260506105714 | 53 | 227 | 3.5 | 4.3 | 0.00 | 0.00 | 0.00 | 92 | 1018.1 |
| 20260506105211 | 53 | 237 | 1.7 | 1.7 | 0.00 | 0.00 | 0.00 | 92 | 1017.7 |
| 20260506104710 | 53 | 254 | 3.5 | 4.3 | 0.00 | 0.00 | 0.00 | 92 | 1017.8 |
| 20260506104207 | 52 | 273 | 1.7 | 1.7 | 0.00 | 0.00 | 0.00 | 92 | 1018.0 |
| 20260506103704 | 52 | 261 | 0.0 | 0.0 | 0.00 | 0.00 | 0.00 | 92 | 1017.8 |
| 20260506103201 | 52 | 278 | 0.0 | 0.9 | 0.00 | 0.00 | 0.00 | 92 | 1017.9 |
| 20260506102659 | 52 | 253 | 0.9 | 0.9 | 0.00 | 0.00 | 0.00 | 92 | 1018.0 |
| 20260506102156 | 52 | 254 | 1.7 | 1.7 | 0.00 | 0.00 | 0.00 | 92 | 1017.9 |
| 20260506101653 | 53 | 209 | 1.7 | 2.6 | 0.00 | 0.00 | 0.00 | 92 | 1017.9 |
| 20260506101150 | 53 | 212 | 2.6 | 4.3 | 0.00 | 0.00 | 0.00 | 91 | 1017.8 |
| 20260506100648 | 53 | 247 | 4.3 | 6.1 | 0.00 | 0.00 | 0.00 | 91 | 1017.7 |
| 20260506100146 | 53 | 266 | 4.3 | 6.1 | 0.00 | 0.00 | 0.00 | 91 | 1017.7 |
| 20260506095644 | 53 | 221 | 2.6 | 4.3 | 0.00 | 0.00 | 0.00 | 91 | 1017.8 |
| 20260506095140 | 53 | 252 | 3.5 | 5.2 | 0.00 | 0.00 | 0.00 | 91 | 1017.5 |
| 20260506094638 | 53 | 251 | 2.6 | 2.6 | 0.00 | 0.00 | 0.00 | 91 | 1017.4 |
| 20260506094136 | 53 | 203 | 0.9 | 1.7 | 0.00 | 0.00 | 0.00 | 91 | 1017.6 |
| 20260506093634 | 53 | 257 | 0.9 | 1.7 | 0.00 | 0.00 | 0.00 | 91 | 1017.4 |
| 20260506093131 | 53 | 253 | 0.0 | 0.0 | 0.00 | 0.00 | 0.00 | 91 | 1017.5 |
| 20260506092628 | 53 | 233 | 0.9 | 1.7 | 0.00 | 0.00 | 0.00 | 91 | 1017.5 |
| 20260506092125 | 53 | 258 | 0.0 | 0.0 | 0.00 | 0.00 | 0.00 | 91 | 1017.6 |
| 20260506091623 | 53 | 254 | 2.6 | 2.6 | 0.00 | 0.00 | 0.00 | 91 | 1017.3 |
| 20260506091121 | 53 | 249 | 0.0 | 0.0 | 0.00 | 0.00 | 0.00 | 90 | 1017.3 |
| 20260506090619 | 53 | 245 | 0.9 | 1.7 | 0.00 | 0.00 | 0.00 | 90 | 1017.2 |
| 20260506090114 | 53 | 264 | 0.0 | 0.9 | 0.00 | 0.00 | 0.00 | 90 | 1017.3 |
| 20260506085612 | 53 | 248 | 1.7 | 1.7 | 0.00 | 0.00 | 0.00 | 90 | 1017.2 |
| 20260506085108 | 54 | 274 | 0.9 | 0.9 | 0.00 | 0.00 | 0.00 | 89 | 1017.3 |
| 20260506084605 | 54 | 216 | 1.7 | 1.7 | 0.00 | 0.00 | 0.00 | 89 | 1017.0 |
| 20260506084101 | 54 | 252 | 1.7 | 1.7 | 0.00 | 0.00 | 0.00 | 89 | 1017.0 |
| 20260506083558 | 54 | 278 | 0.0 | 0.0 | 0.00 | 0.00 | 0.00 | 89 | 1017.0 |
| 20260506083055 | 54 | 247 | 0.9 | 1.7 | 0.00 | 0.00 | 0.00 | 89 | 1017.1 |
| 20260506082552 | 55 | 252 | 0.9 | 1.7 | 0.00 | 0.00 | 0.00 | 88 | 1016.9 |
| 20260506082048 | 55 | 214 | 1.7 | 1.7 | 0.00 | 0.00 | 0.00 | 88 | 1016.9 |
| 20260506081546 | 55 | 253 | 0.0 | 0.0 | 0.00 | 0.00 | 0.00 | 88 | 1016.7 |
| 20260506081043 | 55 | 227 | 1.7 | 2.6 | 0.00 | 0.00 | 0.00 | 88 | 1016.9 |
| 20260506080541 | 55 | 272 | 0.9 | 0.9 | 0.00 | 0.00 | 0.00 | 87 | 1016.7 |
| 20260506073525 | 56 | 196 | 3.5 | 4.3 | 0.00 | 0.00 | 0.00 | 87 | 1016.7 |
| 20260506073021 | 55 | 210 | 2.6 | 2.6 | 0.00 | 0.00 | 0.00 | 88 | 1016.8 |
| 20260506072519 | 55 | 199 | 3.5 | 4.3 | 0.00 | 0.00 | 0.00 | 88 | 1016.6 |
| 20260506072016 | 55 | 202 | 2.6 | 2.6 | 0.00 | 0.00 | 0.00 | 88 | 1016.5 |
| 20260506071514 | 56 | 266 | 1.7 | 2.6 | 0.00 | 0.00 | 0.00 | 87 | 1016.8 |
| 20260506071011 | 56 | 239 | 1.7 | 1.7 | 0.00 | 0.00 | 0.00 | 87 | 1016.5 |
| 20260506070508 | 56 | 235 | 0.9 | 1.7 | 0.00 | 0.00 | 0.00 | 87 | 1016.5 |
| 20260506062445 | 57 | 250 | 0.9 | 0.9 | 0.00 | 0.00 | 0.00 | 85 | 1016.1 |
| 20260506061941 | 57 | 250 | 0.9 | 1.7 | 0.00 | 0.00 | 0.00 | 85 | 1016.2 |
| 20260506061438 | 57 | 246 | 4.3 | 5.2 | 0.00 | 0.00 | 0.00 | 85 | 1016.2 |
| 20260506060936 | 58 | 269 | 2.6 | 2.6 | 0.00 | 0.00 | 0.00 | 85 | 1016.0 |
| 20260506060434 | 58 | 286 | 0.0 | 0.9 | 0.00 | 0.00 | 0.00 | 84 | 1015.9 |
| 20260506051406 | 60 | 207 | 6.1 | 7.8 | 0.00 | 0.00 | 0.00 | 81 | 1015.5 |
| 20260506050903 | 60 | 239 | 0.9 | 0.9 | 0.00 | 0.00 | 0.00 | 81 | 1015.5 |
| 20260506050401 | 60 | 191 | 3.5 | 4.3 | 0.00 | 0.00 | 0.00 | 81 | 1015.5 |
| 20260506044851 | 61 | 150 | 3.5 | 4.3 | 0.00 | 0.00 | 0.00 | 80 | 1015.3 |
| 20260506044349 | 61 | 210 | 3.5 | 5.2 | 0.00 | 0.00 | 0.00 | 80 | 1015.2 |
| 20260506043846 | 61 | 189 | 2.6 | 2.6 | 0.00 | 0.00 | 0.00 | 80 | 1015.4 |
| 20260506043343 | 61 | 196 | 4.3 | 5.2 | 0.00 | 0.00 | 0.00 | 80 | 1015.3 |
| 20260506042841 | 61 | 209 | 2.6 | 4.3 | 0.00 | 0.00 | 0.00 | 80 | 1015.4 |
| 20260506042340 | 61 | 197 | 5.2 | 7.0 | 0.00 | 0.00 | 0.00 | 80 | 1015.1 |
| 20260506041838 | 61 | 202 | 4.3 | 6.1 | 0.00 | 0.00 | 0.00 | 80 | 1015.3 |
| 20260506041335 | 61 | 197 | 4.3 | 5.2 | 0.00 | 0.00 | 0.00 | 80 | 1015.1 |
| 20260506040832 | 61 | 209 | 2.6 | 2.6 | 0.00 | 0.00 | 0.00 | 80 | 1015.2 |
| 20260506040329 | 61 | 209 | 2.6 | 4.3 | 0.00 | 0.00 | 0.00 | 80 | 1015.1 |
| 20260506035825 | 61 | 208 | 1.7 | 1.7 | 0.00 | 0.00 | 0.00 | 79 | 1015.3 |
| 20260506035323 | 62 | 255 | 2.6 | 4.3 | 0.00 | 0.00 | 0.00 | 79 | 1015.1 |
| 20260506034820 | 62 | 271 | 0.0 | 0.9 | 0.00 | 0.00 | 0.00 | 78 | 1015.0 |
| 20260506034317 | 62 | 245 | 1.7 | 2.6 | 0.00 | 0.00 | 0.00 | 78 | 1015.2 |
| 20260506033814 | 62 | 254 | 0.0 | 1.7 | 0.00 | 0.00 | 0.00 | 78 | 1015.0 |
| 20260506033311 | 62 | 218 | 0.9 | 1.7 | 0.00 | 0.00 | 0.00 | 77 | 1014.9 |
| 20260506032808 | 62 | 223 | 0.9 | 1.7 | 0.00 | 0.00 | 0.00 | 77 | 1014.9 |
| 20260506032306 | 62 | 237 | 1.7 | 2.6 | 0.00 | 0.00 | 0.00 | 76 | 1014.8 |
| 20260506031801 | 63 | 191 | 4.3 | 5.2 | 0.00 | 0.00 | 0.00 | 76 | 1015.0 |
| 20260506031259 | 63 | 196 | 2.6 | 2.6 | 0.00 | 0.00 | 0.00 | 75 | 1014.8 |
| 20260506030757 | 63 | 177 | 3.5 | 4.3 | 0.00 | 0.00 | 0.00 | 75 | 1014.6 |
| 20260506030254 | 63 | 182 | 5.2 | 6.1 | 0.00 | 0.00 | 0.00 | 75 | 1014.8 |
| 20260506025751 | 63 | 195 | 4.3 | 6.1 | 0.00 | 0.00 | 0.00 | 75 | 1014.7 |
| 20260506025247 | 63 | 201 | 1.7 | 1.7 | 0.00 | 0.00 | 0.00 | 74 | 1014.8 |
| 20260506024744 | 63 | 186 | 2.6 | 2.6 | 0.00 | 0.00 | 0.00 | 74 | 1014.8 |
| 20260506024241 | 63 | 232 | 3.5 | 5.2 | 0.00 | 0.00 | 0.00 | 74 | 1014.8 |
| 20260506023737 | 63 | 195 | 5.2 | 6.1 | 0.00 | 0.00 | 0.00 | 74 | 1014.7 |
| 20260506023234 | 64 | 202 | 5.2 | 6.1 | 0.00 | 0.00 | 0.00 | 73 | 1014.6 |
| 20260506022731 | 64 | 247 | 3.5 | 4.3 | 0.00 | 0.00 | 0.00 | 73 | 1014.6 |
| 20260506022229 | 64 | 232 | 1.7 | 1.7 | 0.00 | 0.00 | 0.00 | 73 | 1014.8 |
| 20260506021727 | 64 | 180 | 6.1 | 7.8 | 0.00 | 0.00 | 0.00 | 73 | 1014.6 |
| 20260506021224 | 64 | 184 | 6.1 | 7.8 | 0.00 | 0.00 | 0.00 | 73 | 1014.6 |
| 20260506020720 | 64 | 191 | 8.7 | 8.7 | 0.00 | 0.00 | 0.00 | 72 | 1014.5 |
| 20260506020218 | 64 | 194 | 4.3 | 5.2 | 0.00 | 0.00 | 0.00 | 72 | 1014.7 |
| 20260506015710 | 64 | 175 | 4.3 | 5.2 | 0.00 | 0.00 | 0.00 | 73 | 1015.1 |
| 20260506015207 | 64 | 174 | 4.3 | 5.2 | 0.00 | 0.00 | 0.00 | 72 | 1014.8 |
| 20260506014704 | 65 | 205 | 3.5 | 6.1 | 0.00 | 0.00 | 0.00 | 71 | 1014.7 |
| 20260506014200 | 65 | 198 | 1.7 | 1.7 | 0.00 | 0.00 | 0.00 | 70 | 1014.9 |
| 20260506013658 | 65 | 245 | 2.6 | 4.3 | 0.00 | 0.00 | 0.00 | 70 | 1014.8 |
| 20260506013155 | 64 | 183 | 2.6 | 2.6 | 0.00 | 0.00 | 0.00 | 72 | 1014.8 |
| 20260506012651 | 65 | 187 | 4.3 | 7.0 | 0.00 | 0.00 | 0.00 | 70 | 1014.8 |
| 20260506012148 | 65 | 274 | 0.9 | 1.7 | 0.00 | 0.00 | 0.00 | 70 | 1014.7 |
| 20260506011645 | 64 | 190 | 5.2 | 6.1 | 0.00 | 0.00 | 0.00 | 71 | 1014.8 |
| 20260506011141 | 64 | 240 | 0.9 | 0.9 | 0.00 | 0.00 | 0.00 | 72 | 1014.8 |
| 20260506010640 | 65 | 191 | 4.3 | 6.1 | 0.00 | 0.00 | 0.00 | 71 | 1014.8 |
| 20260506010137 | 64 | 214 | 4.3 | 6.1 | 0.00 | 0.00 | 0.00 | 72 | 1014.8 |
| 20260506005634 | 64 | 231 | 3.5 | 4.3 | 0.00 | 0.00 | 0.00 | 72 | 1014.7 |
| 20260506005131 | 64 | 210 | 3.5 | 5.2 | 0.00 | 0.00 | 0.00 | 73 | 1015.0 |
| 20260506004627 | 64 | 195 | 4.3 | 5.2 | 0.00 | 0.00 | 0.00 | 73 | 1014.8 |
| 20260506004124 | 65 | 210 | 1.7 | 2.6 | 0.00 | 0.00 | 0.00 | 72 | 1014.9 |
| 20260506003620 | 64 | 263 | 1.7 | 1.7 | 0.00 | 0.00 | 0.00 | 74 | 1014.9 |
| 20260506003116 | 64 | 196 | 4.3 | 5.2 | 0.00 | 0.00 | 0.00 | 74 | 1014.8 |
| 20260506002613 | 63 | 255 | 4.3 | 5.2 | 0.00 | 0.00 | 0.00 | 74 | 1015.1 |
| 20260506002109 | 64 | 207 | 2.6 | 2.6 | 0.00 | 0.00 | 0.00 | 74 | 1014.9 |
| 20260506001605 | 63 | 204 | 5.2 | 6.1 | 0.00 | 0.00 | 0.00 | 74 | 1015.1 |
| 20260506001102 | 64 | 182 | 5.2 | 7.0 | 0.00 | 0.00 | 0.00 | 73 | 1014.9 |
| 20260506000600 | 64 | 192 | 3.5 | 4.3 | 0.00 | 0.00 | 0.00 | 72 | 1015.0 |
| 20260506000057 | 63 | 200 | 9.6 | 11.3 | 0.00 | 0.00 | 0.00 | 74 | 1015.2 |
| 20260505235555 | 63 | 142 | 5.2 | 6.1 | 0.00 | 0.00 | 0.00 | 74 | 1015.2 |
| 20260505235052 | 64 | 181 | 5.2 | 6.1 | 0.00 | 0.00 | 0.00 | 73 | 1015.5 |
| 20260505234549 | 63 | 210 | 2.6 | 4.3 | 0.00 | 0.00 | 0.00 | 73 | 1015.3 |
| 20260505234045 | 63 | 182 | 4.3 | 6.1 | 0.00 | 0.00 | 0.00 | 74 | 1015.4 |
| 20260505233543 | 63 | 223 | 4.3 | 5.2 | 0.00 | 0.00 | 0.00 | 74 | 1015.4 |
| 20260505233040 | 63 | 215 | 5.2 | 7.0 | 0.00 | 0.00 | 0.00 | 74 | 1015.5 |
| 20260505232538 | 63 | 182 | 3.5 | 6.1 | 0.00 | 0.00 | 0.00 | 74 | 1015.5 |
| 20260505232035 | 64 | 260 | 1.7 | 1.7 | 0.00 | 0.00 | 0.00 | 73 | 1015.8 |
| 20260505231532 | 62 | 194 | 7.0 | 7.8 | 0.00 | 0.00 | 0.00 | 74 | 1015.6 |
| 20260505231031 | 62 | 196 | 5.2 | 7.8 | 0.00 | 0.00 | 0.00 | 76 | 1015.6 |
| 20260505230528 | 61 | 138 | 3.5 | 4.3 | 0.00 | 0.00 | 0.00 | 77 | 1015.5 |
| 20260505230024 | 63 | 156 | 6.1 | 7.8 | 0.00 | 0.00 | 0.00 | 74 | 1015.6 |
| 20260505225521 | 63 | 210 | 3.5 | 7.0 | 0.00 | 0.00 | 0.00 | 74 | 1015.9 |
| 20260505225017 | 62 | 219 | 0.9 | 1.7 | 0.00 | 0.00 | 0.00 | 76 | 1015.7 |
| 20260505224514 | 63 | 198 | 7.0 | 11.3 | 0.00 | 0.00 | 0.00 | 75 | 1015.9 |
| 20260505224011 | 62 | 210 | 1.7 | 1.7 | 0.00 | 0.00 | 0.00 | 76 | 1015.7 |
| 20260505223508 | 62 | 191 | 7.8 | 8.7 | 0.00 | 0.00 | 0.00 | 76 | 1015.6 |
| 20260505223004 | 62 | 184 | 2.6 | 6.1 | 0.00 | 0.00 | 0.00 | 76 | 1015.9 |
| 20260505222501 | 62 | 193 | 9.6 | 11.3 | 0.00 | 0.00 | 0.00 | 76 | 1015.9 |
| 20260505221956 | 61 | 226 | 6.1 | 7.8 | 0.00 | 0.00 | 0.00 | 78 | 1016.1 |
| 20260505221454 | 61 | 221 | 6.1 | 7.8 | 0.00 | 0.00 | 0.00 | 77 | 1016.1 |
| 20260505220951 | 60 | 200 | 2.6 | 4.3 | 0.00 | 0.00 | 0.00 | 79 | 1016.1 |
| 20260505220448 | 60 | 147 | 1.7 | 1.7 | 0.00 | 0.00 | 0.00 | 78 | 1016.2 |
| 20260505215945 | 60 | 241 | 1.7 | 1.7 | 0.00 | 0.00 | 0.00 | 78 | 1016.3 |
| 20260505215444 | 60 | 178 | 4.3 | 6.1 | 0.00 | 0.00 | 0.00 | 78 | 1016.2 |
| 20260505214941 | 60 | 225 | 2.6 | 4.3 | 0.00 | 0.00 | 0.00 | 78 | 1016.5 |
| 20260505214439 | 60 | 219 | 5.2 | 6.1 | 0.00 | 0.00 | 0.00 | 79 | 1016.2 |
| 20260505213936 | 60 | 245 | 3.5 | 4.3 | 0.00 | 0.00 | 0.00 | 79 | 1016.3 |
| 20260505213433 | 60 | 180 | 4.3 | 5.2 | 0.00 | 0.00 | 0.00 | 80 | 1016.3 |
| 20260505212929 | 59 | 161 | 2.6 | 2.6 | 0.00 | 0.00 | 0.00 | 79 | 1016.2 |
| 20260505212426 | 60 | 209 | 2.6 | 2.6 | 0.00 | 0.00 | 0.00 | 79 | 1016.5 |
| 20260505211923 | 60 | 165 | 2.6 | 2.6 | 0.00 | 0.00 | 0.00 | 80 | 1016.5 |
| 20260505211420 | 60 | 176 | 6.1 | 7.0 | 0.00 | 0.00 | 0.00 | 78 | 1016.2 |
| 20260505210917 | 60 | 193 | 4.3 | 5.2 | 0.00 | 0.00 | 0.00 | 78 | 1016.3 |
| 20260505210414 | 59 | 186 | 1.7 | 1.7 | 0.00 | 0.00 | 0.00 | 80 | 1016.3 |
| 20260505205911 | 60 | 212 | 2.6 | 2.6 | 0.00 | 0.00 | 0.00 | 79 | 1016.3 |
| 20260505205409 | 59 | 216 | 3.5 | 4.3 | 0.00 | 0.00 | 0.00 | 79 | 1016.4 |
| 20260505204906 | 59 | 173 | 4.3 | 5.2 | 0.00 | 0.00 | 0.00 | 80 | 1016.2 |
| 20260505204403 | 59 | 174 | 0.9 | 1.7 | 0.00 | 0.00 | 0.00 | 80 | 1016.3 |
| 20260505203900 | 60 | 186 | 7.8 | 9.6 | 0.00 | 0.00 | 0.00 | 79 | 1016.6 |
| 20260505203357 | 59 | 222 | 0.9 | 1.7 | 0.00 | 0.00 | 0.00 | 80 | 1016.6 |
| 20260505202853 | 58 | 201 | 7.0 | 8.7 | 0.00 | 0.00 | 0.00 | 81 | 1016.6 |
| 20260505202349 | 58 | 201 | 6.1 | 7.0 | 0.00 | 0.00 | 0.00 | 81 | 1016.5 |
| 20260505201846 | 58 | 186 | 6.1 | 7.0 | 0.00 | 0.00 | 0.00 | 81 | 1016.6 |
| 20260505201343 | 58 | 198 | 5.2 | 6.1 | 0.00 | 0.00 | 0.00 | 82 | 1016.4 |
| 20260505200842 | 58 | 264 | 0.9 | 1.7 | 0.00 | 0.00 | 0.00 | 82 | 1016.5 |
| 20260505200338 | 59 | 273 | 0.9 | 0.9 | 0.00 | 0.00 | 0.00 | 82 | 1016.5 |
| 20260505195834 | 58 | 222 | 2.6 | 2.6 | 0.00 | 0.00 | 0.00 | 82 | 1016.4 |
| 20260505195331 | 58 | 269 | 2.6 | 4.3 | 0.00 | 0.00 | 0.00 | 82 | 1016.5 |
| 20260505194828 | 59 | 216 | 2.6 | 4.3 | 0.00 | 0.00 | 0.00 | 82 | 1016.4 |
| 20260505194325 | 58 | 207 | 2.6 | 2.6 | 0.00 | 0.00 | 0.00 | 82 | 1016.4 |
| 20260505193820 | 58 | 160 | 4.3 | 6.1 | 0.00 | 0.00 | 0.00 | 83 | 1016.7 |
| 20260505193319 | 58 | 243 | 5.2 | 6.1 | 0.00 | 0.00 | 0.00 | 82 | 1016.5 |
| 20260505192816 | 58 | 229 | 5.2 | 6.1 | 0.00 | 0.00 | 0.00 | 82 | 1016.5 |
| 20260505192315 | 58 | 207 | 3.5 | 4.3 | 0.00 | 0.00 | 0.00 | 83 | 1016.4 |
| 20260505191812 | 58 | 217 | 2.6 | 4.3 | 0.00 | 0.00 | 0.00 | 83 | 1016.5 |
| 20260505191310 | 58 | 188 | 3.5 | 4.3 | 0.00 | 0.00 | 0.00 | 83 | 1016.5 |
| 20260505190807 | 57 | 251 | 3.5 | 4.3 | 0.00 | 0.00 | 0.00 | 83 | 1016.4 |
| 20260505190302 | 58 | 264 | 4.3 | 5.2 | 0.00 | 0.00 | 0.00 | 83 | 1016.4 |
| 20260505185758 | 58 | 184 | 4.3 | 6.1 | 0.00 | 0.00 | 0.00 | 83 | 1016.2 |
| 20260505185254 | 57 | 185 | 4.3 | 5.2 | 0.00 | 0.00 | 0.00 | 84 | 1016.3 |
| 20260505184750 | 58 | 192 | 2.6 | 4.3 | 0.00 | 0.00 | 0.00 | 83 | 1016.3 |
| 20260505184248 | 57 | 219 | 1.7 | 2.6 | 0.00 | 0.00 | 0.00 | 83 | 1016.4 |
| 20260505183745 | 57 | 238 | 0.9 | 1.7 | 0.00 | 0.00 | 0.00 | 84 | 1016.4 |
| 20260505183242 | 57 | 186 | 4.3 | 6.1 | 0.00 | 0.00 | 0.00 | 84 | 1016.3 |
| 20260505182738 | 57 | 197 | 4.3 | 5.2 | 0.00 | 0.00 | 0.00 | 84 | 1016.3 |
| 20260505182235 | 57 | 210 | 2.6 | 4.3 | 0.00 | 0.00 | 0.00 | 84 | 1016.3 |
| 20260505181732 | 57 | 179 | 5.2 | 6.1 | 0.00 | 0.00 | 0.00 | 84 | 1016.6 |
| 20260505181229 | 57 | 264 | 1.7 | 1.7 | 0.00 | 0.00 | 0.00 | 84 | 1016.4 |
| 20260505180726 | 57 | 186 | 4.3 | 5.2 | 0.00 | 0.00 | 0.00 | 84 | 1016.4 |
| 20260505180222 | 57 | 209 | 1.7 | 1.7 | 0.00 | 0.00 | 0.00 | 84 | 1016.4 |
| 20260505175719 | 57 | 198 | 1.7 | 1.7 | 0.00 | 0.00 | 0.00 | 85 | 1016.2 |
| 20260505175215 | 56 | 190 | 2.6 | 2.6 | 0.00 | 0.00 | 0.00 | 85 | 1016.1 |
| 20260505174712 | 56 | 201 | 7.8 | 9.6 | 0.00 | 0.00 | 0.00 | 85 | 1016.3 |
| 20260505174209 | 56 | 185 | 4.3 | 4.3 | 0.00 | 0.00 | 0.00 | 86 | 1016.3 |
| 20260505173705 | 56 | 201 | 7.8 | 8.7 | 0.00 | 0.00 | 0.00 | 85 | 1016.4 |
| 20260505173202 | 56 | 208 | 2.6 | 5.2 | 0.00 | 0.00 | 0.00 | 85 | 1016.5 |
| 20260505172659 | 56 | 199 | 1.7 | 1.7 | 0.00 | 0.00 | 0.00 | 86 | 1016.3 |
| 20260505172156 | 56 | 256 | 4.3 | 6.1 | 0.00 | 0.00 | 0.00 | 85 | 1016.4 |
| 20260505171655 | 56 | 176 | 2.6 | 2.6 | 0.00 | 0.00 | 0.00 | 86 | 1016.1 |
| 20260505171152 | 56 | 186 | 6.1 | 7.8 | 0.00 | 0.00 | 0.00 | 85 | 1016.2 |
| 20260505170649 | 56 | 257 | 0.9 | 1.7 | 0.00 | 0.00 | 0.00 | 86 | 1016.2 |
| 20260505170146 | 56 | 198 | 4.3 | 5.2 | 0.00 | 0.00 | 0.00 | 86 | 1016.2 |
| 20260505165646 | 56 | 248 | 0.9 | 1.7 | 0.00 | 0.00 | 0.00 | 86 | 1016.1 |
| 20260505165143 | 56 | 217 | 4.3 | 5.2 | 0.00 | 0.00 | 0.00 | 86 | 1016.2 |
| 20260505164638 | 56 | 204 | 1.7 | 1.7 | 0.00 | 0.00 | 0.00 | 85 | 1015.9 |
| 20260505164136 | 56 | 215 | 4.3 | 6.1 | 0.00 | 0.00 | 0.00 | 85 | 1015.9 |
| 20260505163634 | 56 | 221 | 3.5 | 5.2 | 0.00 | 0.00 | 0.00 | 86 | 1016.0 |
| 20260505163132 | 56 | 206 | 4.3 | 6.1 | 0.00 | 0.00 | 0.00 | 86 | 1016.1 |
| 20260505162629 | 56 | 185 | 5.2 | 7.0 | 0.00 | 0.00 | 0.00 | 85 | 1015.9 |
| 20260505162126 | 56 | 276 | 4.3 | 5.2 | 0.00 | 0.00 | 0.00 | 85 | 1015.9 |
| 20260505161623 | 56 | 269 | 2.6 | 4.3 | 0.00 | 0.00 | 0.00 | 85 | 1015.9 |
| 20260505161120 | 56 | 216 | 4.3 | 5.2 | 0.00 | 0.00 | 0.00 | 86 | 1015.9 |
| 20260505160618 | 56 | 199 | 5.2 | 7.0 | 0.00 | 0.00 | 0.00 | 86 | 1015.9 |
| 20260505160115 | 56 | 178 | 1.7 | 2.6 | 0.00 | 0.00 | 0.00 | 86 | 1015.8 |
| 20260505153055 | 55 | 228 | 2.6 | 4.3 | 0.00 | 0.00 | 0.00 | 87 | 1015.8 |
| 20260505152551 | 55 | 195 | 1.7 | 2.6 | 0.00 | 0.00 | 0.00 | 88 | 1015.7 |
| 20260505152047 | 55 | 194 | 5.2 | 7.0 | 0.00 | 0.00 | 0.00 | 88 | 1015.6 |
| 20260505151542 | 55 | 174 | 0.9 | 1.7 | 0.00 | 0.00 | 0.00 | 88 | 1015.5 |
| 20260505151040 | 55 | 169 | 5.2 | 6.1 | 0.00 | 0.00 | 0.00 | 88 | 1015.4 |
| 20260505150536 | 55 | 224 | 3.5 | 4.3 | 0.00 | 0.00 | 0.00 | 88 | 1015.5 |
| 20260505140502 | 55 | 175 | 6.1 | 7.0 | 0.00 | 0.00 | 0.00 | 87 | 1014.9 |
| 20260505124915 | 55 | 191 | 4.3 | 6.1 | 0.00 | 0.00 | 0.00 | 88 | 1014.2 |
| 20260505124412 | 55 | 196 | 2.6 | 2.6 | 0.00 | 0.00 | 0.00 | 89 | 1014.2 |
| 20260505123908 | 54 | 212 | 7.0 | 7.8 | 0.00 | 0.00 | 0.00 | 89 | 1014.2 |
| 20260505123405 | 54 | 154 | 6.1 | 7.8 | 0.00 | 0.00 | 0.00 | 89 | 1014.1 |
| 20260505122900 | 55 | 194 | 5.2 | 6.1 | 0.00 | 0.00 | 0.00 | 89 | 1013.9 |
| 20260505122358 | 54 | 162 | 7.8 | 8.7 | 0.00 | 0.00 | 0.00 | 89 | 1014.0 |
| 20260505121855 | 54 | 190 | 7.0 | 7.8 | 0.00 | 0.00 | 0.00 | 89 | 1014.0 |
| 20260505121352 | 54 | 177 | 11.3 | 14.8 | 0.00 | 0.00 | 0.00 | 89 | 1014.1 |
| 20260505120847 | 54 | 167 | 4.3 | 6.1 | 0.00 | 0.00 | 0.00 | 89 | 1014.0 |
| 20260505120344 | 54 | 203 | 9.6 | 12.2 | 0.00 | 0.00 | 0.00 | 89 | 1014.0 |
| 20260505115843 | 54 | 172 | 6.1 | 8.7 | 0.00 | 0.00 | 0.00 | 89 | 1014.1 |
| 20260505115340 | 54 | 175 | 3.5 | 4.3 | 0.00 | 0.00 | 0.00 | 90 | 1013.9 |
| 20260505114838 | 54 | 198 | 7.8 | 9.6 | 0.00 | 0.00 | 0.00 | 90 | 1013.9 |
| 20260505114334 | 54 | 181 | 6.1 | 7.0 | 0.00 | 0.00 | 0.00 | 89 | 1013.9 |